,,PressureMeas_1m,,PRMeasQMR101_1,,RHStat155_1m_1,,SRMeasQMS101R_1m,,TAStat155_1m_1,,GenWind_1,,GenWind_1,
2019-07-26, 00:00:06,VALID,919.195,VALID,0.0,VALID,99.116,VALID,0.014,VALID,19.858,INVALID,360.0,VALID,0.0,
2019-07-26, 00:01:06,VALID,919.187,VALID,0.0,VALID,99.149,VALID,0.014,VALID,19.888,INVALID,360.0,VALID,0.0,
2019-07-26, 00:02:06,VALID,919.185,VALID,0.0,VALID,99.14,VALID,0.024,VALID,19.899,INVALID,360.0,VALID,0.0,
2019-07-26, 00:03:06,VALID,919.165,VALID,0.0,VALID,99.112,VALID,0.012,VALID,19.914,INVALID,360.0,VALID,0.0,
2019-07-26, 00:04:06,VALID,919.166,VALID,0.0,VALID,99.04,VALID,-0.012,VALID,19.93,INVALID,360.0,VALID,0.0,
2019-07-26, 00:05:06,VALID,919.168,VALID,0.0,VALID,98.981,VALID,-0.01,VALID,19.935,INVALID,360.0,VALID,0.0,
2019-07-26, 00:06:06,VALID,919.172,VALID,0.0,VALID,98.928,VALID,-0.009,VALID,19.918,INVALID,360.0,VALID,0.0,
2019-07-26, 00:07:06,VALID,919.155,VALID,0.0,VALID,98.846,VALID,-0.037,VALID,19.899,INVALID,360.0,VALID,0.0,
2019-07-26, 00:08:06,VALID,919.175,VALID,0.0,VALID,98.857,VALID,-0.023,VALID,19.912,INVALID,360.0,VALID,0.0,
2019-07-26, 00:09:06,VALID,919.158,VALID,0.0,VALID,98.786,VALID,-0.033,VALID,19.881,INVALID,360.0,VALID,0.0,
2019-07-26, 00:10:06,VALID,919.151,VALID,0.0,VALID,98.782,VALID,-0.015,VALID,19.898,INVALID,360.0,VALID,0.0,
2019-07-26, 00:11:06,VALID,919.125,VALID,0.0,VALID,98.725,VALID,-0.019,VALID,19.894,INVALID,360.0,VALID,0.0,
2019-07-26, 00:12:06,VALID,919.127,VALID,0.0,VALID,98.537,VALID,-0.01,VALID,19.838,INVALID,360.0,VALID,0.0,
2019-07-26, 00:13:06,VALID,919.109,VALID,0.0,VALID,98.485,VALID,-0.013,VALID,19.832,INVALID,360.0,VALID,0.0,
2019-07-26, 00:14:06,VALID,919.101,VALID,0.0,VALID,98.489,VALID,-0.036,VALID,19.852,INVALID,360.0,VALID,0.0,
2019-07-26, 00:15:06,VALID,919.073,VALID,0.0,VALID,98.536,VALID,-0.032,VALID,19.899,INVALID,360.0,VALID,0.0,
2019-07-26, 00:16:06,VALID,919.044,VALID,0.0,VALID,98.622,VALID,-0.03,VALID,19.962,INVALID,360.0,VALID,0.0,
2019-07-26, 00:17:06,VALID,919.043,VALID,0.0,VALID,98.5,VALID,-0.019,VALID,19.952,INVALID,360.0,VALID,0.0,
2019-07-26, 00:18:06,VALID,919.035,VALID,0.0,VALID,98.371,VALID,0.007,VALID,19.96,INVALID,360.0,VALID,0.0,
2019-07-26, 00:19:06,VALID,919.012,VALID,0.0,VALID,98.267,VALID,0.023,VALID,19.967,INVALID,360.0,VALID,0.0,
2019-07-26, 00:20:06,VALID,919.007,VALID,0.0,VALID,98.12,VALID,0.006,VALID,19.938,INVALID,360.0,VALID,0.0,
2019-07-26, 00:21:06,VALID,919.002,VALID,0.0,VALID,98.057,VALID,0.002,VALID,19.938,INVALID,360.0,VALID,0.0,
2019-07-26, 00:22:06,VALID,918.975,VALID,0.0,VALID,98.061,VALID,0.001,VALID,19.941,INVALID,360.0,VALID,0.0,
2019-07-26, 00:23:06,VALID,918.982,VALID,0.0,VALID,98.197,VALID,0.008,VALID,19.964,INVALID,360.0,VALID,0.0,
2019-07-26, 00:24:06,VALID,918.956,VALID,0.0,VALID,98.33,VALID,-0.011,VALID,19.987,INVALID,360.0,VALID,0.0,
2019-07-26, 00:25:06,VALID,918.95,VALID,0.0,VALID,98.374,VALID,-0.007,VALID,19.992,INVALID,360.0,VALID,0.0,
2019-07-26, 00:26:06,VALID,918.938,VALID,0.0,VALID,98.328,VALID,-0.002,VALID,19.981,INVALID,360.0,VALID,0.0,
2019-07-26, 00:27:06,VALID,918.943,VALID,0.0,VALID,98.272,VALID,-0.009,VALID,19.972,INVALID,360.0,VALID,0.0,
2019-07-26, 00:28:06,VALID,918.934,VALID,0.0,VALID,98.202,VALID,-0.002,VALID,19.95,INVALID,360.0,VALID,0.0,
2019-07-26, 00:29:06,VALID,918.942,VALID,0.0,VALID,98.191,VALID,0.0,VALID,19.951,INVALID,360.0,VALID,0.0,
2019-07-26, 00:30:06,VALID,918.931,VALID,0.0,VALID,98.167,VALID,-0.012,VALID,19.945,INVALID,360.0,VALID,0.0,
2019-07-26, 00:31:06,VALID,918.929,VALID,0.0,VALID,98.089,VALID,0.005,VALID,19.932,INVALID,360.0,VALID,0.0,
2019-07-26, 00:32:06,VALID,918.909,VALID,0.0,VALID,98.023,VALID,0.004,VALID,19.934,INVALID,360.0,VALID,0.0,
2019-07-26, 00:33:06,VALID,918.905,VALID,0.0,VALID,98.049,VALID,0.002,VALID,19.954,INVALID,360.0,VALID,0.0,
2019-07-26, 00:34:06,VALID,918.884,VALID,0.0,VALID,98.115,VALID,0.0,VALID,19.966,INVALID,360.0,VALID,0.0,
2019-07-26, 00:35:06,VALID,918.878,VALID,0.0,VALID,98.207,VALID,-0.006,VALID,19.99,INVALID,360.0,VALID,0.0,
2019-07-26, 00:36:06,VALID,918.893,VALID,0.0,VALID,98.289,VALID,-0.008,VALID,20.011,INVALID,360.0,VALID,0.0,
2019-07-26, 00:37:06,VALID,918.868,VALID,0.0,VALID,98.17,VALID,-0.011,VALID,19.978,INVALID,360.0,VALID,0.0,
2019-07-26, 00:38:06,VALID,918.855,VALID,0.0,VALID,98.196,VALID,-0.009,VALID,19.983,INVALID,360.0,VALID,0.0,
2019-07-26, 00:39:06,VALID,918.855,VALID,0.0,VALID,98.33,VALID,-0.008,VALID,19.975,INVALID,360.0,VALID,0.0,
2019-07-26, 00:40:06,VALID,918.823,VALID,0.0,VALID,98.48,VALID,-0.01,VALID,19.956,INVALID,360.0,VALID,0.0,
2019-07-26, 00:41:06,VALID,918.806,VALID,0.0,VALID,98.618,VALID,0.001,VALID,19.945,INVALID,360.0,VALID,0.0,
2019-07-26, 00:42:06,VALID,918.78,VALID,0.0,VALID,98.726,VALID,-0.006,VALID,19.955,INVALID,360.0,VALID,0.0,
2019-07-26, 00:43:06,VALID,918.776,VALID,0.0,VALID,98.808,VALID,0.001,VALID,19.965,INVALID,360.0,VALID,0.0,
2019-07-26, 00:44:06,VALID,918.751,VALID,0.0,VALID,98.738,VALID,-0.008,VALID,19.914,INVALID,360.0,VALID,0.0,
2019-07-26, 00:45:06,VALID,918.735,VALID,0.0,VALID,98.591,VALID,-0.007,VALID,19.873,INVALID,360.0,VALID,0.0,
2019-07-26, 00:46:06,VALID,918.721,VALID,0.0,VALID,98.57,VALID,-0.001,VALID,19.891,INVALID,360.0,VALID,0.0,
2019-07-26, 00:47:06,VALID,918.705,VALID,0.0,VALID,98.4,VALID,-0.021,VALID,19.883,INVALID,360.0,VALID,0.0,
2019-07-26, 00:48:06,VALID,918.679,VALID,0.0,VALID,98.351,VALID,-0.012,VALID,19.888,INVALID,360.0,VALID,0.0,
2019-07-26, 00:49:06,VALID,918.683,VALID,0.0,VALID,98.298,VALID,-0.018,VALID,19.912,INVALID,360.0,VALID,0.0,
2019-07-26, 00:50:06,VALID,918.698,VALID,0.0,VALID,98.374,VALID,-0.018,VALID,19.948,INVALID,360.0,VALID,0.0,
2019-07-26, 00:51:06,VALID,918.704,VALID,0.0,VALID,98.505,VALID,-0.01,VALID,19.968,INVALID,360.0,VALID,0.0,
2019-07-26, 00:52:06,VALID,918.691,VALID,0.0,VALID,98.562,VALID,0.001,VALID,19.961,INVALID,360.0,VALID,0.0,
2019-07-26, 00:53:06,VALID,918.662,VALID,0.0,VALID,98.576,VALID,-0.005,VALID,19.943,INVALID,360.0,VALID,0.0,
2019-07-26, 00:54:06,VALID,918.654,VALID,0.0,VALID,98.634,VALID,-0.015,VALID,19.944,INVALID,360.0,VALID,0.0,
2019-07-26, 00:55:06,VALID,918.631,VALID,0.0,VALID,98.678,VALID,-0.009,VALID,19.963,INVALID,360.0,VALID,0.0,
2019-07-26, 00:56:06,VALID,918.598,VALID,0.0,VALID,98.605,VALID,-0.003,VALID,19.928,INVALID,360.0,VALID,0.0,
2019-07-26, 00:57:06,VALID,918.588,VALID,0.0,VALID,98.611,VALID,-0.013,VALID,19.925,INVALID,360.0,VALID,0.0,
2019-07-26, 00:58:06,VALID,918.569,VALID,0.0,VALID,98.64,VALID,0.001,VALID,19.933,INVALID,360.0,VALID,0.0,
2019-07-26, 00:59:06,VALID,918.548,VALID,0.0,VALID,98.652,VALID,-0.005,VALID,19.955,INVALID,360.0,VALID,0.0,
2019-07-26, 01:00:06,VALID,918.534,VALID,0.0,VALID,98.646,VALID,-0.001,VALID,19.975,INVALID,360.0,VALID,0.0,
2019-07-26, 01:01:06,VALID,918.507,VALID,0.0,VALID,98.594,VALID,-0.019,VALID,19.971,INVALID,360.0,VALID,0.0,
2019-07-26, 01:02:06,VALID,918.514,VALID,0.0,VALID,98.551,VALID,-0.009,VALID,19.956,INVALID,360.0,VALID,0.0,
2019-07-26, 01:03:06,VALID,918.477,VALID,0.0,VALID,98.517,VALID,-0.006,VALID,19.935,INVALID,360.0,VALID,0.0,
2019-07-26, 01:04:06,VALID,918.463,VALID,0.0,VALID,98.581,VALID,0.0,VALID,19.952,INVALID,360.0,VALID,0.0,
2019-07-26, 01:05:06,VALID,918.459,VALID,0.0,VALID,98.538,VALID,0.001,VALID,19.939,INVALID,360.0,VALID,0.0,
2019-07-26, 01:06:06,VALID,918.43,VALID,0.0,VALID,98.466,VALID,0.021,VALID,19.935,INVALID,360.0,VALID,0.0,
2019-07-26, 01:07:06,VALID,918.434,VALID,0.0,VALID,98.455,VALID,0.022,VALID,19.951,INVALID,360.0,VALID,0.0,
2019-07-26, 01:08:06,VALID,918.423,VALID,0.0,VALID,98.395,VALID,-0.005,VALID,19.926,INVALID,360.0,VALID,0.0,
2019-07-26, 01:09:06,VALID,918.421,VALID,0.0,VALID,98.428,VALID,-0.001,VALID,19.904,INVALID,360.0,VALID,0.0,
2019-07-26, 01:10:06,VALID,918.424,VALID,0.0,VALID,98.55,VALID,0.002,VALID,19.882,INVALID,360.0,VALID,0.0,
2019-07-26, 01:11:06,VALID,918.433,VALID,0.0,VALID,98.619,VALID,0.007,VALID,19.859,INVALID,360.0,VALID,0.0,
2019-07-26, 01:12:06,VALID,918.421,VALID,0.0,VALID,98.703,VALID,0.006,VALID,19.847,INVALID,360.0,VALID,0.0,
2019-07-26, 01:13:06,VALID,918.404,VALID,0.0,VALID,98.762,VALID,0.014,VALID,19.844,INVALID,360.0,VALID,0.0,
2019-07-26, 01:14:06,VALID,918.404,VALID,0.0,VALID,98.846,VALID,0.01,VALID,19.841,INVALID,360.0,VALID,0.0,
2019-07-26, 01:15:06,VALID,918.399,VALID,0.0,VALID,98.884,VALID,0.015,VALID,19.853,INVALID,360.0,VALID,0.0,
2019-07-26, 01:16:06,VALID,918.399,VALID,0.0,VALID,98.89,VALID,0.023,VALID,19.851,INVALID,360.0,VALID,0.0,
2019-07-26, 01:17:06,VALID,918.38,VALID,0.0,VALID,98.876,VALID,0.013,VALID,19.859,INVALID,360.0,VALID,0.0,
2019-07-26, 01:18:06,VALID,918.36,VALID,0.0,VALID,98.851,VALID,0.01,VALID,19.865,INVALID,360.0,VALID,0.0,
2019-07-26, 01:19:06,VALID,918.345,VALID,0.0,VALID,98.803,VALID,0.012,VALID,19.855,INVALID,360.0,VALID,0.0,
2019-07-26, 01:20:06,VALID,918.332,VALID,0.0,VALID,98.806,VALID,0.014,VALID,19.882,INVALID,360.0,VALID,0.0,
2019-07-26, 01:21:06,VALID,918.301,VALID,0.0,VALID,98.773,VALID,0.004,VALID,19.886,INVALID,360.0,VALID,0.0,
2019-07-26, 01:22:06,VALID,918.276,VALID,0.0,VALID,98.769,VALID,-0.003,VALID,19.906,INVALID,360.0,VALID,0.0,
2019-07-26, 01:23:06,VALID,918.265,VALID,0.0,VALID,98.757,VALID,0.001,VALID,19.934,INVALID,360.0,VALID,0.0,
2019-07-26, 01:24:06,VALID,918.23,VALID,0.0,VALID,98.602,VALID,-0.001,VALID,19.916,INVALID,360.0,VALID,0.0,
2019-07-26, 01:25:06,VALID,918.221,VALID,0.0,VALID,98.325,VALID,0.004,VALID,19.878,INVALID,360.0,VALID,0.0,
2019-07-26, 01:26:06,VALID,918.201,VALID,0.0,VALID,98.156,VALID,0.005,VALID,19.884,INVALID,360.0,VALID,0.0,
2019-07-26, 01:27:06,VALID,918.168,VALID,0.0,VALID,97.757,VALID,0.021,VALID,19.868,INVALID,360.0,VALID,0.0,
2019-07-26, 01:28:06,VALID,918.143,VALID,0.0,VALID,97.482,VALID,0.011,VALID,19.894,INVALID,360.0,VALID,0.0,
2019-07-26, 01:29:06,VALID,918.145,VALID,0.0,VALID,97.381,VALID,0.02,VALID,19.942,INVALID,360.0,VALID,0.0,
2019-07-26, 01:30:06,VALID,918.117,VALID,0.0,VALID,97.227,VALID,0.023,VALID,19.954,INVALID,360.0,VALID,0.0,
2019-07-26, 01:31:06,VALID,918.13,VALID,0.0,VALID,97.209,VALID,0.008,VALID,19.947,INVALID,360.0,VALID,0.0,
2019-07-26, 01:32:06,VALID,918.114,VALID,0.0,VALID,97.243,VALID,0.008,VALID,19.922,INVALID,360.0,VALID,0.0,
2019-07-26, 01:33:06,VALID,918.113,VALID,0.0,VALID,97.205,VALID,-0.007,VALID,19.911,INVALID,360.0,VALID,0.0,
2019-07-26, 01:34:06,VALID,918.102,VALID,0.0,VALID,97.143,VALID,-0.003,VALID,19.908,INVALID,360.0,VALID,0.0,
2019-07-26, 01:35:06,VALID,918.096,VALID,0.0,VALID,97.122,VALID,-0.008,VALID,19.905,INVALID,360.0,VALID,0.0,
2019-07-26, 01:36:06,VALID,918.109,VALID,0.0,VALID,97.112,VALID,0.009,VALID,19.889,INVALID,360.0,VALID,0.0,
2019-07-26, 01:37:06,VALID,918.087,VALID,0.0,VALID,96.94,VALID,0.006,VALID,19.862,INVALID,360.0,VALID,0.0,
2019-07-26, 01:38:06,VALID,918.049,VALID,0.0,VALID,96.851,VALID,-0.012,VALID,19.856,INVALID,360.0,VALID,0.0,
2019-07-26, 01:39:06,VALID,918.062,VALID,0.0,VALID,96.849,VALID,-0.012,VALID,19.846,INVALID,360.0,VALID,0.0,
2019-07-26, 01:40:06,VALID,918.056,VALID,0.0,VALID,96.91,VALID,-0.009,VALID,19.823,INVALID,360.0,VALID,0.0,
2019-07-26, 01:41:06,VALID,918.053,VALID,0.0,VALID,97.015,VALID,-0.016,VALID,19.78,INVALID,360.0,VALID,0.0,
2019-07-26, 01:42:06,VALID,918.067,VALID,0.0,VALID,97.066,VALID,-0.001,VALID,19.741,INVALID,360.0,VALID,0.0,
2019-07-26, 01:43:06,VALID,918.08,VALID,0.0,VALID,97.208,VALID,-0.007,VALID,19.727,INVALID,360.0,VALID,0.0,
2019-07-26, 01:44:06,VALID,918.065,VALID,0.0,VALID,97.364,VALID,-0.013,VALID,19.713,INVALID,360.0,VALID,0.0,
2019-07-26, 01:45:06,VALID,918.064,VALID,0.0,VALID,97.406,VALID,-0.016,VALID,19.669,INVALID,360.0,VALID,0.0,
2019-07-26, 01:46:06,VALID,918.061,VALID,0.0,VALID,97.539,VALID,-0.003,VALID,19.679,INVALID,360.0,VALID,0.0,
2019-07-26, 01:47:06,VALID,918.054,VALID,0.0,VALID,97.671,VALID,-0.002,VALID,19.665,INVALID,360.0,VALID,0.0,
2019-07-26, 01:48:06,VALID,918.064,VALID,0.0,VALID,97.764,VALID,-0.013,VALID,19.651,INVALID,360.0,VALID,0.0,
2019-07-26, 01:49:06,VALID,918.06,VALID,0.0,VALID,97.854,VALID,-0.005,VALID,19.641,INVALID,360.0,VALID,0.0,
2019-07-26, 01:50:06,VALID,918.048,VALID,0.0,VALID,97.896,VALID,0.001,VALID,19.629,INVALID,360.0,VALID,0.0,
2019-07-26, 01:51:06,VALID,918.06,VALID,0.0,VALID,97.963,VALID,0.001,VALID,19.653,INVALID,360.0,VALID,0.0,
2019-07-26, 01:52:06,VALID,918.039,VALID,0.0,VALID,97.983,VALID,-0.003,VALID,19.681,INVALID,360.0,VALID,0.0,
2019-07-26, 01:53:06,VALID,918.05,VALID,0.0,VALID,97.828,VALID,0.001,VALID,19.668,INVALID,360.0,VALID,0.0,
2019-07-26, 01:54:06,VALID,918.046,VALID,0.0,VALID,97.793,VALID,0.021,VALID,19.666,INVALID,360.0,VALID,0.0,
2019-07-26, 01:55:06,VALID,918.045,VALID,0.0,VALID,97.678,VALID,0.001,VALID,19.621,INVALID,360.0,VALID,0.0,
2019-07-26, 01:56:06,VALID,918.04,VALID,0.0,VALID,97.595,VALID,0.014,VALID,19.556,INVALID,360.0,VALID,0.0,
2019-07-26, 01:57:06,VALID,918.069,VALID,0.0,VALID,97.775,VALID,-0.0,VALID,19.518,INVALID,360.0,VALID,0.0,
2019-07-26, 01:58:06,VALID,918.053,VALID,0.0,VALID,97.987,VALID,0.009,VALID,19.511,INVALID,360.0,VALID,0.0,
2019-07-26, 01:59:06,VALID,918.057,VALID,0.0,VALID,98.151,VALID,-0.006,VALID,19.529,INVALID,360.0,VALID,0.0,
2019-07-26, 02:00:06,VALID,918.064,VALID,0.0,VALID,98.199,VALID,0.01,VALID,19.565,INVALID,360.0,VALID,0.0,
2019-07-26, 02:01:06,VALID,918.051,VALID,0.0,VALID,98.213,VALID,0.001,VALID,19.594,INVALID,360.0,VALID,0.0,
2019-07-26, 02:02:06,VALID,918.068,VALID,0.0,VALID,98.185,VALID,0.029,VALID,19.612,INVALID,360.0,VALID,0.0,
2019-07-26, 02:03:06,VALID,918.055,VALID,0.0,VALID,98.248,VALID,0.001,VALID,19.624,INVALID,360.0,VALID,0.0,
2019-07-26, 02:04:06,VALID,918.04,VALID,0.0,VALID,98.368,VALID,0.016,VALID,19.645,INVALID,360.0,VALID,0.0,
2019-07-26, 02:05:06,VALID,918.006,VALID,0.0,VALID,98.398,VALID,0.012,VALID,19.648,INVALID,360.0,VALID,0.0,
2019-07-26, 02:06:06,VALID,917.987,VALID,0.0,VALID,98.349,VALID,-0.008,VALID,19.648,INVALID,360.0,VALID,0.0,
2019-07-26, 02:07:06,VALID,917.967,VALID,0.0,VALID,98.217,VALID,0.003,VALID,19.619,INVALID,360.0,VALID,0.0,
2019-07-26, 02:08:06,VALID,917.954,VALID,0.0,VALID,98.005,VALID,-0.025,VALID,19.587,INVALID,360.0,VALID,0.0,
2019-07-26, 02:09:06,VALID,917.937,VALID,0.0,VALID,97.874,VALID,-0.018,VALID,19.575,INVALID,360.0,VALID,0.0,
2019-07-26, 02:10:06,VALID,917.914,VALID,0.0,VALID,97.684,VALID,-0.022,VALID,19.531,INVALID,360.0,VALID,0.0,
2019-07-26, 02:11:06,VALID,917.897,VALID,0.0,VALID,97.567,VALID,-0.016,VALID,19.501,INVALID,360.0,VALID,0.0,
2019-07-26, 02:12:06,VALID,917.894,VALID,0.0,VALID,97.418,VALID,-0.022,VALID,19.479,INVALID,360.0,VALID,0.0,
2019-07-26, 02:13:06,VALID,917.885,VALID,0.0,VALID,97.385,VALID,-0.028,VALID,19.465,INVALID,360.0,VALID,0.0,
2019-07-26, 02:14:06,VALID,917.864,VALID,0.0,VALID,97.439,VALID,-0.012,VALID,19.446,INVALID,360.0,VALID,0.0,
2019-07-26, 02:15:06,VALID,917.838,VALID,0.0,VALID,97.295,VALID,-0.002,VALID,19.406,INVALID,360.0,VALID,0.0,
2019-07-26, 02:16:06,VALID,917.844,VALID,0.0,VALID,97.357,VALID,-0.011,VALID,19.383,INVALID,360.0,VALID,0.0,
2019-07-26, 02:17:06,VALID,917.844,VALID,0.0,VALID,97.382,VALID,0.002,VALID,19.346,INVALID,360.0,VALID,0.0,
2019-07-26, 02:18:06,VALID,917.828,VALID,0.0,VALID,97.372,VALID,-0.002,VALID,19.329,INVALID,360.0,VALID,0.0,
2019-07-26, 02:19:06,VALID,917.819,VALID,0.0,VALID,97.267,VALID,0.013,VALID,19.315,INVALID,360.0,VALID,0.0,
2019-07-26, 02:20:06,VALID,917.81,VALID,0.0,VALID,97.184,VALID,0.016,VALID,19.296,INVALID,360.0,VALID,0.0,
2019-07-26, 02:21:06,VALID,917.801,VALID,0.0,VALID,97.106,VALID,0.009,VALID,19.286,INVALID,360.0,VALID,0.0,
2019-07-26, 02:22:06,VALID,917.771,VALID,0.0,VALID,96.998,VALID,0.016,VALID,19.271,INVALID,360.0,VALID,0.0,
2019-07-26, 02:23:06,VALID,917.761,VALID,0.0,VALID,96.983,VALID,0.018,VALID,19.291,INVALID,360.0,VALID,0.0,
2019-07-26, 02:24:06,VALID,917.73,VALID,0.0,VALID,96.993,VALID,0.026,VALID,19.323,INVALID,360.0,VALID,0.0,
2019-07-26, 02:25:06,VALID,917.691,VALID,0.0,VALID,97.099,VALID,0.009,VALID,19.321,INVALID,360.0,VALID,0.0,
2019-07-26, 02:26:06,VALID,917.672,VALID,0.0,VALID,97.229,VALID,0.013,VALID,19.304,INVALID,360.0,VALID,0.0,
2019-07-26, 02:27:06,VALID,917.658,VALID,0.0,VALID,97.354,VALID,0.034,VALID,19.27,INVALID,360.0,VALID,0.0,
2019-07-26, 02:28:06,VALID,917.646,VALID,0.0,VALID,97.287,VALID,0.008,VALID,19.232,INVALID,360.0,VALID,0.0,
2019-07-26, 02:29:06,VALID,917.635,VALID,0.0,VALID,97.102,VALID,0.009,VALID,19.213,INVALID,360.0,VALID,0.0,
2019-07-26, 02:30:06,VALID,917.618,VALID,0.0,VALID,97.086,VALID,0.01,VALID,19.21,INVALID,360.0,VALID,0.0,
2019-07-26, 02:31:06,VALID,917.606,VALID,0.0,VALID,97.325,VALID,0.002,VALID,19.218,INVALID,360.0,VALID,0.0,
2019-07-26, 02:32:06,VALID,917.59,VALID,0.0,VALID,97.465,VALID,0.021,VALID,19.199,INVALID,360.0,VALID,0.0,
2019-07-26, 02:33:06,VALID,917.583,VALID,0.0,VALID,97.523,VALID,0.017,VALID,19.169,INVALID,360.0,VALID,0.0,
2019-07-26, 02:34:06,VALID,917.584,VALID,0.0,VALID,97.645,VALID,0.008,VALID,19.147,INVALID,360.0,VALID,0.0,
2019-07-26, 02:35:06,VALID,917.578,VALID,0.0,VALID,97.685,VALID,0.01,VALID,19.119,INVALID,360.0,VALID,0.0,
2019-07-26, 02:36:06,VALID,917.552,VALID,0.0,VALID,97.793,VALID,-0.0,VALID,19.106,INVALID,360.0,VALID,0.0,
2019-07-26, 02:37:06,VALID,917.552,VALID,0.0,VALID,97.908,VALID,0.007,VALID,19.086,INVALID,360.0,VALID,0.0,
2019-07-26, 02:38:06,VALID,917.537,VALID,0.0,VALID,97.904,VALID,-0.011,VALID,19.055,INVALID,360.0,VALID,0.0,
2019-07-26, 02:39:06,VALID,917.52,VALID,0.0,VALID,97.854,VALID,-0.016,VALID,19.048,INVALID,360.0,VALID,0.0,
2019-07-26, 02:40:06,VALID,917.511,VALID,0.0,VALID,97.745,VALID,-0.016,VALID,19.023,INVALID,360.0,VALID,0.0,
2019-07-26, 02:41:06,VALID,917.491,VALID,0.0,VALID,97.675,VALID,-0.023,VALID,19.013,INVALID,360.0,VALID,0.0,
2019-07-26, 02:42:06,VALID,917.495,VALID,0.0,VALID,97.669,VALID,-0.008,VALID,19.005,INVALID,360.0,VALID,0.0,
2019-07-26, 02:43:06,VALID,917.469,VALID,0.0,VALID,97.717,VALID,-0.01,VALID,19.004,INVALID,360.0,VALID,0.0,
2019-07-26, 02:44:06,VALID,917.455,VALID,0.0,VALID,97.751,VALID,0.005,VALID,18.996,INVALID,360.0,VALID,0.0,
2019-07-26, 02:45:06,VALID,917.448,VALID,0.0,VALID,97.739,VALID,-0.003,VALID,18.978,INVALID,360.0,VALID,0.0,
2019-07-26, 02:46:06,VALID,917.426,VALID,0.0,VALID,97.678,VALID,-0.019,VALID,18.959,VALID,62.0,VALID,0.0,
2019-07-26, 02:47:06,VALID,917.41,VALID,0.0,VALID,97.719,VALID,0.008,VALID,18.959,INVALID,360.0,VALID,0.0,
2019-07-26, 02:48:06,VALID,917.398,VALID,0.0,VALID,97.711,VALID,-0.01,VALID,18.961,INVALID,360.0,VALID,0.0,
2019-07-26, 02:49:06,VALID,917.378,VALID,0.0,VALID,97.652,VALID,-0.032,VALID,18.973,INVALID,360.0,VALID,0.0,
2019-07-26, 02:50:06,VALID,917.381,VALID,0.0,VALID,97.46,VALID,-0.038,VALID,18.98,INVALID,360.0,VALID,0.0,
2019-07-26, 02:51:06,VALID,917.369,VALID,0.0,VALID,97.223,VALID,-0.029,VALID,18.989,INVALID,360.0,VALID,0.0,
2019-07-26, 02:52:06,VALID,917.36,VALID,0.0,VALID,96.977,VALID,-0.013,VALID,18.976,INVALID,360.0,VALID,0.0,
2019-07-26, 02:53:06,VALID,917.361,VALID,0.0,VALID,96.953,VALID,-0.018,VALID,18.967,INVALID,360.0,VALID,0.0,
2019-07-26, 02:54:06,VALID,917.359,VALID,0.0,VALID,97.245,VALID,-0.025,VALID,18.978,INVALID,360.0,VALID,0.0,
2019-07-26, 02:55:06,VALID,917.357,VALID,0.0,VALID,97.547,VALID,-0.021,VALID,18.955,INVALID,360.0,VALID,0.0,
2019-07-26, 02:56:06,VALID,917.346,VALID,0.0,VALID,97.65,VALID,-0.022,VALID,18.912,INVALID,360.0,VALID,0.0,
2019-07-26, 02:57:06,VALID,917.324,VALID,0.0,VALID,97.829,VALID,0.005,VALID,18.892,INVALID,360.0,VALID,0.0,
2019-07-26, 02:58:06,VALID,917.3,VALID,0.0,VALID,97.957,VALID,-0.009,VALID,18.868,INVALID,360.0,VALID,0.0,
2019-07-26, 02:59:06,VALID,917.269,VALID,0.0,VALID,97.98,VALID,-0.017,VALID,18.825,INVALID,360.0,VALID,0.0,
2019-07-26, 03:00:06,VALID,917.26,VALID,0.0,VALID,98.22,VALID,-0.006,VALID,18.841,INVALID,360.0,VALID,0.0,
2019-07-26, 03:01:06,VALID,917.246,VALID,0.0,VALID,98.402,VALID,-0.015,VALID,18.836,INVALID,360.0,VALID,0.0,
2019-07-26, 03:02:06,VALID,917.229,VALID,0.0,VALID,98.283,VALID,-0.028,VALID,18.765,INVALID,360.0,VALID,0.0,
2019-07-26, 03:03:06,VALID,917.216,VALID,0.0,VALID,98.084,VALID,0.001,VALID,18.742,INVALID,360.0,VALID,0.0,
2019-07-26, 03:04:06,VALID,917.236,VALID,0.0,VALID,97.95,VALID,0.002,VALID,18.791,INVALID,360.0,VALID,0.0,
2019-07-26, 03:05:06,VALID,917.22,VALID,0.0,VALID,97.651,VALID,0.011,VALID,18.847,INVALID,360.0,VALID,0.0,
2019-07-26, 03:06:06,VALID,917.239,VALID,0.0,VALID,97.283,VALID,-0.008,VALID,18.921,INVALID,360.0,VALID,0.0,
2019-07-26, 03:07:06,VALID,917.231,VALID,0.0,VALID,96.774,VALID,0.004,VALID,18.989,INVALID,360.0,VALID,0.0,
2019-07-26, 03:08:06,VALID,917.257,VALID,0.0,VALID,96.578,VALID,-0.002,VALID,19.055,INVALID,360.0,VALID,0.0,
2019-07-26, 03:09:06,VALID,917.244,VALID,0.0,VALID,96.314,VALID,-0.007,VALID,19.078,INVALID,360.0,VALID,0.0,
2019-07-26, 03:10:06,VALID,917.245,VALID,0.0,VALID,95.896,VALID,-0.011,VALID,19.098,INVALID,360.0,VALID,0.0,
2019-07-26, 03:11:06,VALID,917.224,VALID,0.0,VALID,95.55,VALID,-0.006,VALID,19.152,INVALID,360.0,VALID,0.0,
2019-07-26, 03:12:06,VALID,917.238,VALID,0.0,VALID,94.921,VALID,-0.004,VALID,19.225,INVALID,360.0,VALID,0.0,
2019-07-26, 03:13:06,VALID,917.238,VALID,0.0,VALID,94.321,VALID,0.006,VALID,19.264,INVALID,360.0,VALID,0.0,
2019-07-26, 03:14:06,VALID,917.229,VALID,0.0,VALID,93.706,VALID,-0.0,VALID,19.314,INVALID,360.0,VALID,0.0,
2019-07-26, 03:15:06,VALID,917.217,VALID,0.0,VALID,93.42,VALID,0.003,VALID,19.321,INVALID,360.0,VALID,0.0,
2019-07-26, 03:16:06,VALID,917.208,VALID,0.0,VALID,93.097,VALID,-0.008,VALID,19.301,INVALID,360.0,VALID,0.0,
2019-07-26, 03:17:06,VALID,917.198,VALID,0.0,VALID,93.114,VALID,0.019,VALID,19.288,INVALID,360.0,VALID,0.0,
2019-07-26, 03:18:06,VALID,917.177,VALID,0.0,VALID,92.614,VALID,0.012,VALID,19.319,INVALID,360.0,VALID,0.0,
2019-07-26, 03:19:06,VALID,917.175,VALID,0.0,VALID,92.086,VALID,0.033,VALID,19.365,INVALID,360.0,VALID,0.0,
2019-07-26, 03:20:06,VALID,917.156,VALID,0.0,VALID,91.634,VALID,0.036,VALID,19.403,INVALID,360.0,VALID,0.0,
2019-07-26, 03:21:06,VALID,917.135,VALID,0.0,VALID,91.462,VALID,0.021,VALID,19.464,INVALID,360.0,VALID,0.0,
2019-07-26, 03:22:06,VALID,917.121,VALID,0.0,VALID,91.22,VALID,0.006,VALID,19.488,INVALID,360.0,VALID,0.0,
2019-07-26, 03:23:06,VALID,917.134,VALID,0.0,VALID,91.109,VALID,0.007,VALID,19.522,INVALID,360.0,VALID,0.0,
2019-07-26, 03:24:06,VALID,917.096,VALID,0.0,VALID,91.042,VALID,0.001,VALID,19.554,INVALID,360.0,VALID,0.0,
2019-07-26, 03:25:06,VALID,917.104,VALID,0.0,VALID,90.628,VALID,0.006,VALID,19.594,INVALID,360.0,VALID,0.0,
2019-07-26, 03:26:06,VALID,917.104,VALID,0.0,VALID,90.582,VALID,0.011,VALID,19.591,INVALID,360.0,VALID,0.0,
2019-07-26, 03:27:06,VALID,917.105,VALID,0.0,VALID,90.648,VALID,-0.013,VALID,19.564,INVALID,360.0,VALID,0.0,
2019-07-26, 03:28:06,VALID,917.107,VALID,0.0,VALID,90.959,VALID,-0.001,VALID,19.539,INVALID,360.0,VALID,0.0,
2019-07-26, 03:29:06,VALID,917.105,VALID,0.0,VALID,91.17,VALID,0.005,VALID,19.533,INVALID,360.0,VALID,0.0,
2019-07-26, 03:30:06,VALID,917.111,VALID,0.0,VALID,91.528,VALID,-0.004,VALID,19.505,INVALID,360.0,VALID,0.0,
2019-07-26, 03:31:06,VALID,917.107,VALID,0.0,VALID,91.794,VALID,0.006,VALID,19.507,INVALID,360.0,VALID,0.0,
2019-07-26, 03:32:06,VALID,917.108,VALID,0.0,VALID,91.832,VALID,0.001,VALID,19.518,INVALID,360.0,VALID,0.0,
2019-07-26, 03:33:06,VALID,917.08,VALID,0.0,VALID,92.107,VALID,0.014,VALID,19.517,INVALID,360.0,VALID,0.0,
2019-07-26, 03:34:06,VALID,917.081,VALID,0.0,VALID,92.253,VALID,-0.025,VALID,19.487,INVALID,360.0,VALID,0.0,
2019-07-26, 03:35:06,VALID,917.075,VALID,0.0,VALID,92.117,VALID,-0.01,VALID,19.475,INVALID,360.0,VALID,0.0,
2019-07-26, 03:36:06,VALID,917.074,VALID,0.0,VALID,91.93,VALID,-0.013,VALID,19.482,INVALID,360.0,VALID,0.0,
2019-07-26, 03:37:06,VALID,917.071,VALID,0.0,VALID,92.076,VALID,-0.023,VALID,19.464,INVALID,360.0,VALID,0.0,